King Salmon, AK

1:01 AM AKDT on September 26, 2016 (GMT -0800)
Port Heiden

Weather History for PAPH - April, 2014

Change the Weather History Date:

Sunday, April 13, 2014

  Actual Average Record
Temperature  
Mean Temperature 40 °F -  
Max Temperature 46 °F 37 °F 53 °F (2016)
Min Temperature 35 °F 27 °F 10 °F (2009)
Degree Days  
Heating Degree Days 24    
Moisture  
Dew Point 30 °F    
Average Humidity 66    
Maximum Humidity 81    
Minimum Humidity 42    
Precipitation  
Precipitation 0.03 in - - ()
Sea Level Pressure  
Sea Level Pressure 29.68 in    
Wind  
Wind Speed 12 mph (SE)    
Max Wind Speed 34 mph    
Max Gust Speed 44 mph    
Visibility 10 miles    
Events      
Averages and records for this station are not official NWS values.
T = Trace of Precipitation, MM = Missing Value Source: NWS Daily Summary

Daily Weather History Graph

Daily Weather History Graph

Search for Another Location

Airport or City:

Trip Planner

Search our weather history database for the weather conditions in past years. The results will help you decide how hot, cold, wet, or windy it might be!

Date:

Astronomy

Apr. 13, 2014 Rise Set
Actual Time 7:31 AM AKDT 9:40 PM AKDT
Civil Twilight 6:50 AM AKDT 10:21 PM AKDT
Nautical Twilight 5:57 AM AKDT 11:14 PM AKDT
Astronomical Twilight 4:54 AM AKDT 12:19 AM AKDT
Moon 8:17 PM AKDT (4/13) 6:54 AM AKDT (4/13)
Length of Visible Light 15h 31m
Length of Day
14h 09m
Waxing Gibbous, 98% of the Moon is Illuminated
Apr 13
Waxing Gibbous
Apr 14
Full
Apr 21
Last Quarter
Apr 28
New
May 6
First Quarter

Hourly Weather History & Observations

Time (AKDT) Temp. Windchill Dew Point Humidity Pressure Visibility Wind Dir Wind Speed Gust Speed Precip Events Conditions
12:16 AM 35.6 °F 30.7 °F 30.2 °F 81% 29.63 in 10.0 mi West 5.8 mph - 0.01 in   Overcast
12:36 AM 35.6 °F 32.8 °F 30.2 °F 81% 29.63 in 10.0 mi West 3.5 mph - 0.01 in   Overcast
12:56 AM 35.6 °F - 30.2 °F 81% 29.63 in 10.0 mi Calm Calm - 0.01 in   Overcast
1:16 AM 35.6 °F - 30.2 °F 81% 29.64 in 10.0 mi Calm Calm - N/A   Overcast
1:36 AM 35.6 °F 32.8 °F 30.2 °F 81% 29.65 in 10.0 mi South 3.5 mph - N/A   Overcast
1:56 AM 35.6 °F 31.7 °F 30.2 °F 81% 29.65 in 10.0 mi South 4.6 mph - N/A   Overcast
2:16 AM 35.6 °F 30.7 °F 30.2 °F 81% 29.66 in 10.0 mi South 5.8 mph - N/A   Overcast
2:36 AM 35.6 °F 30.7 °F 30.2 °F 81% 29.66 in 10.0 mi South 5.8 mph - N/A   Overcast
2:56 AM 35.6 °F 30.7 °F 30.2 °F 81% 29.67 in 10.0 mi South 5.8 mph - N/A   Overcast
3:16 AM 35.6 °F 29.9 °F 30.2 °F 81% 29.67 in 10.0 mi South 6.9 mph - 0.01 in   Overcast
3:36 AM 35.6 °F 30.7 °F 30.2 °F 81% 29.67 in 10.0 mi South 5.8 mph - 0.02 in   Overcast
4:16 AM 35.6 °F 30.7 °F 28.4 °F 75% 29.67 in 10.0 mi SSE 5.8 mph - N/A   Overcast
4:36 AM 35.6 °F 29.9 °F 28.4 °F 75% 29.67 in 10.0 mi SSE 6.9 mph - N/A   Overcast
4:56 AM 35.6 °F 29.9 °F 28.4 °F 75% 29.68 in 10.0 mi SSE 6.9 mph - N/A   Overcast
5:16 AM 35.6 °F 29.2 °F 28.4 °F 75% 29.69 in 10.0 mi South 8.1 mph - N/A   Overcast
5:36 AM 35.6 °F 29.9 °F 28.4 °F 75% 29.69 in 10.0 mi South 6.9 mph - N/A   Overcast
5:56 AM 35.6 °F 29.2 °F 28.4 °F 75% 29.69 in 10.0 mi SSE 8.1 mph - N/A   Overcast
6:16 AM 35.6 °F 29.9 °F 28.4 °F 75% 29.70 in 10.0 mi South 6.9 mph - N/A   Overcast
6:36 AM 37.4 °F 32.1 °F 30.2 °F 75% 29.70 in 10.0 mi South 6.9 mph - N/A   Overcast
6:56 AM 37.4 °F 31.4 °F 28.4 °F 70% 29.71 in 10.0 mi South 8.1 mph - N/A   Overcast
7:36 AM 37.4 °F 31.4 °F 30.2 °F 75% 29.72 in 10.0 mi SSW 8.1 mph - N/A   Overcast
7:56 AM 37.4 °F 32.8 °F 30.2 °F 75% 29.72 in 10.0 mi South 5.8 mph - N/A   Overcast
8:16 AM 37.4 °F 32.8 °F 30.2 °F 75% 29.72 in 10.0 mi SSE 5.8 mph - N/A   Overcast
8:36 AM 37.4 °F 32.1 °F 30.2 °F 75% 29.72 in 10.0 mi SSE 6.9 mph - N/A   Overcast
8:56 AM 37.4 °F 34.9 °F 30.2 °F 75% 29.72 in 10.0 mi SE 3.5 mph - N/A   Overcast
9:16 AM 37.4 °F 32.8 °F 30.2 °F 75% 29.72 in 10.0 mi SE 5.8 mph - N/A   Overcast
9:36 AM 39.2 °F 37.0 °F 30.2 °F 70% 29.72 in 10.0 mi SE 3.5 mph - N/A   Overcast
9:56 AM 39.2 °F 35.0 °F 30.2 °F 70% 29.72 in 10.0 mi East 5.8 mph - N/A   Overcast
10:16 AM 41.0 °F 34.3 °F 30.2 °F 65% 29.73 in 10.0 mi SE 11.5 mph - N/A   Scattered Clouds
10:36 AM 42.8 °F 35.8 °F 32.0 °F 66% 29.72 in 10.0 mi SE 13.8 mph - N/A   Overcast
10:56 AM 42.8 °F 34.5 °F 32.0 °F 66% 29.72 in 10.0 mi SSE 18.4 mph 24.2 mph N/A   Overcast
11:16 AM 42.8 °F 34.8 °F 30.2 °F 61% 29.72 in 10.0 mi SE 17.3 mph - N/A   Mostly Cloudy
11:36 AM 42.8 °F 33.5 °F 28.4 °F 57% 29.72 in 10.0 mi SE 23.0 mph - N/A   Scattered Clouds
11:56 AM 42.8 °F 33.3 °F 28.4 °F 57% 29.71 in 10.0 mi SSE 24.2 mph 28.8 mph N/A   Clear
12:16 PM 44.6 °F 35.3 °F 28.4 °F 53% 29.71 in 10.0 mi SSE 26.5 mph 29.9 mph N/A   Clear
12:36 PM 44.6 °F 35.1 °F 28.4 °F 53% 29.70 in 10.0 mi SSE 27.6 mph 33.4 mph N/A   Clear
12:56 PM 46.4 °F 37.7 °F 26.6 °F 46% 29.71 in 10.0 mi SSE 26.5 mph 35.7 mph N/A   Clear
1:16 PM 46.4 °F 37.5 °F 30.2 °F 53% 29.69 in 10.0 mi SSE 27.6 mph 36.8 mph N/A   Clear
1:36 PM 44.6 °F 34.7 °F 28.4 °F 53% 29.69 in 10.0 mi SSE 29.9 mph 38.0 mph N/A   Clear
1:56 PM 44.6 °F 34.4 °F 28.4 °F 53% 29.68 in 10.0 mi SSE 32.2 mph 41.4 mph N/A   Clear
2:16 PM 46.4 °F 37.0 °F 28.4 °F 50% 29.68 in 10.0 mi SE 31.1 mph 38.0 mph N/A   Clear
2:36 PM 44.6 °F 34.4 °F 30.2 °F 57% 29.67 in 10.0 mi SSE 32.2 mph 41.4 mph N/A   Clear
2:56 PM 44.6 °F 34.6 °F 30.2 °F 57% 29.67 in 10.0 mi SE 31.1 mph 36.8 mph N/A   Clear
3:16 PM 44.6 °F 34.6 °F 30.2 °F 57% 29.67 in 10.0 mi SE 31.1 mph 35.7 mph N/A   Partly Cloudy
3:36 PM 44.6 °F 34.6 °F 30.2 °F 57% 29.65 in 10.0 mi SE 31.1 mph 40.3 mph N/A   Partly Cloudy
3:56 PM 46.4 °F 37.7 °F 30.2 °F 53% 29.66 in 10.0 mi SE 26.5 mph 36.8 mph N/A   Mostly Cloudy
4:16 PM 44.6 °F 34.1 °F 30.2 °F 57% 29.63 in 10.0 mi SE 34.5 mph 40.3 mph N/A   Overcast
4:36 PM 44.6 °F 34.2 °F 30.2 °F 57% 29.63 in 10.0 mi SE 33.4 mph 42.6 mph N/A   Overcast
4:56 PM 44.6 °F 34.4 °F 30.2 °F 57% 29.63 in 10.0 mi SE 32.2 mph 41.4 mph N/A   Overcast
5:16 PM 44.6 °F 34.4 °F 30.2 °F 57% 29.64 in 10.0 mi SE 32.2 mph 42.6 mph N/A   Overcast
5:36 PM 42.8 °F 32.7 °F 30.2 °F 61% 29.64 in 10.0 mi SE 27.6 mph 39.1 mph N/A   Overcast
5:56 PM 42.8 °F 32.5 °F 30.2 °F 61% 29.64 in 10.0 mi SE 28.8 mph 43.7 mph N/A   Overcast
6:16 PM 42.8 °F 32.7 °F 30.2 °F 61% 29.65 in 10.0 mi SE 27.6 mph 34.5 mph N/A   Overcast
6:36 PM 42.8 °F 33.3 °F 30.2 °F 61% 29.66 in 10.0 mi ESE 24.2 mph 31.1 mph N/A   Overcast
6:56 PM 42.8 °F 33.5 °F 30.2 °F 61% 29.66 in 10.0 mi ESE 23.0 mph 31.1 mph N/A   Overcast
7:16 PM 42.8 °F 33.8 °F 30.2 °F 61% 29.66 in 10.0 mi ESE 21.9 mph 27.6 mph N/A   Overcast
7:36 PM 41.0 °F 31.6 °F 30.2 °F 65% 29.66 in 10.0 mi ESE 20.7 mph - N/A   Overcast
7:56 PM 41.0 °F 31.9 °F 30.2 °F 65% 29.66 in 10.0 mi ESE 19.6 mph 28.8 mph N/A   Overcast
8:16 PM 41.0 °F 31.9 °F 30.2 °F 65% 29.66 in 10.0 mi ESE 19.6 mph 27.6 mph N/A   Overcast
8:36 PM 41.0 °F 31.6 °F 30.2 °F 65% 29.65 in 10.0 mi ESE 20.7 mph - N/A   Overcast
8:56 PM 41.0 °F 31.4 °F 30.2 °F 65% 29.66 in 10.0 mi ESE 21.9 mph - N/A   Mostly Cloudy
9:16 PM 41.0 °F 31.6 °F 30.2 °F 65% 29.66 in 10.0 mi ESE 20.7 mph - N/A   Scattered Clouds
9:36 PM 41.0 °F 31.6 °F 30.2 °F 65% 29.67 in 10.0 mi ESE 20.7 mph - N/A   Mostly Cloudy
9:56 PM 41.0 °F 31.6 °F 30.2 °F 65% 29.68 in 10.0 mi ESE 20.7 mph - N/A   Overcast
10:16 PM 41.0 °F 32.8 °F 30.2 °F 65% 29.68 in 10.0 mi ESE 16.1 mph 20.7 mph N/A   Overcast
10:36 PM 39.2 °F 29.6 °F 30.2 °F 70% 29.68 in 10.0 mi ESE 19.6 mph 23.0 mph N/A   Overcast
10:56 PM 39.2 °F 29.6 °F 30.2 °F 70% 29.68 in 10.0 mi SE 19.6 mph 25.3 mph N/A   Mostly Cloudy
11:16 PM 39.2 °F 29.6 °F 30.2 °F 70% 29.69 in 10.0 mi SE 19.6 mph 26.5 mph N/A   Partly Cloudy
11:36 PM 39.2 °F 30.2 °F 30.2 °F 70% 29.69 in 10.0 mi ESE 17.3 mph 23.0 mph N/A   Scattered Clouds
11:56 PM 39.2 °F 30.2 °F 30.2 °F 70% 29.69 in 10.0 mi ESE 17.3 mph 23.0 mph N/A   Overcast